Home > Weather > Salinas > Past weeks

Flag for USA Past Weather in Salinas, California, USA — Yesterday and Last 2 Weeks

Now
69 °F

Sunny.


Feels Like: 69 °F
Forecast: 54 / 75 °F
Wind: 9 mph from Northwest

Location: Salinas Municipal Airport

Current Time: Jun 28, 2016 at 11:45:53 AM

Latest Report: Jun 28, 2016 at 10:53 AM


Visibility: 10 mi

Pressure: 30.01 "Hg

Humidity: 57%

Dew Point: 53 °F

Location of SalinasLocation

Past Weather in Salinas — Graph

°F

Salinas Temperature Yesterday

Maximum temperature yesterday: 71 °F (at 11:53 AM)
Minimum temperature yesterday: 52 °F (at 4:53 AM)
Average temperature yesterday: 61 °F

High & Low Weather Summary for the Past Weeks

 TemperatureHumidityPressure
High81 °F (Jun 19, 10:53 AM)93% (Jun 23, 6:59 AM)30.19 "Hg (Jun 23, 6:59 AM)
Low47 °F (Jun 16, 5:53 AM)28% (Jun 19, 12:53 PM)29.96 "Hg (Jun 25, 6:53 PM)
Average62 °F67%30.06 "Hg
* Reported Jun 13 9:53 AM — Jun 28 9:53 AM, Salinas, Weather by CustomWeather, © 2016

Note: Actual official high and low records may vary slightly from our data, if they occured in-between our weather recording intervals... More about our weather records

Advertising

Salinas Weather History for the Previous 24 Hours

Scroll right to see more
 ConditionsComfort  
Time TempWeatherWind HumidityBarometerVisibility
9:53 AM
Tue, Jun 28
65 °FSunny.3 mph63%30.02 "Hg10 mi
8:53 AM59 °FSunny.No wind75%30.03 "Hg10 mi
7:53 AM53 °FLow clouds.5 mph89%30.02 "Hg8 mi
7:04 AM52 °FFog.7 mph93%29.99 "Hg4 mi
6:53 AM52 °FFog.6 mph93%30.01 "Hg2 mi
5:53 AM54 °FClear.5 mph83%30.01 "Hg5 mi
4:53 AM54 °FClear.8 mph83%30.00 "Hg7 mi
3:53 AM55 °FClear.5 mph83%29.99 "Hg7 mi
2:53 AM55 °FClear.3 mph83%29.99 "Hg7 mi
1:53 AM55 °FClear.7 mph83%29.98 "Hg7 mi
12:53 AM57 °FClear.7 mph78%29.99 "Hg8 mi
11:53 PM
Mon, Jun 27
58 °FClear.8 mph75%30.00 "Hg9 mi
10:53 PM59 °FClear.9 mph72%29.99 "Hg9 mi
9:53 PM59 °FClear.12 mph69%29.99 "Hg9 mi
8:53 PM60 °FSunny.13 mph69%29.98 "Hg9 mi
7:53 PM62 °FSunny.14 mph65%29.98 "Hg8 mi
6:53 PM65 °FSunny.14 mph61%29.97 "Hg8 mi
5:53 PM67 °FSunny.14 mph57%29.96 "Hg9 mi
4:53 PM68 °FSunny.13 mph55%29.98 "Hg10 mi
3:53 PM68 °FSunny.16 mph55%29.99 "Hg10 mi
2:53 PM69 °FSunny.18 mph53%30.00 "Hg10 mi
1:53 PM70 °FSunny.16 mph53%30.01 "Hg10 mi
12:53 PM70 °FSunny.14 mph53%30.02 "Hg10 mi
11:53 AM71 °FSunny.14 mph53%30.02 "Hg10 mi
Weather by CustomWeather, © 2016

See weather overviewHow to use our weather pages